Location: ??????????
(44.2167°N, 135.5333°E)
Time: 15:16:35
(UTC+00:00)

Cosmos 2228 - Pass Details

Date: 15 June 2025
Orbit: 566 x 593 km, 82.5° (Epoch: 16 July)

Event Time Altitude Azimuth Distance (km) Brightness Sun altitude
Rises 17:41:00 0° 350° (N) 2,777 7.1 -12.9°
Reaches altitude 10° 17:43:12 10° 349° (N) 1,874 6.1 -12.7°
Maximum altitude 17:47:19 79° 263° (W) 584 2.8 -12.2°
Drops below altitude 10° 17:51:25 10° 177° (S) 1,861 5.1 -11.7°
Enters shadow 17:51:37 - 177° (S) 1,943 5.2 -11.7°
